sat.trackr.live / text

‹ back to catalog

STARLINK-1260

NORAD 45404 · 2020-019AW

PAYLOAD ACTIVE UNKNOWN

§ Identity

Operator
Country
US
Launch date
2020-03-18
Launch site
AFETR
Launch vehicle
Mass (kg)
RCS (m²)

Purposes: comms

External: N2YO · Heavens-Above · Gunter

§ Orbital elements

Epoch: 2026-09-19T16:29:49.066944Z

Period
93.09 min
Inclination
53.1516°
Eccentricity
0.0003661
Mean motion
15.46822410 rev/d
Perigee alt
423.5 km
Apogee alt
428.5 km
Semi-major
6,804.2 km
B*
7.4900e-4
RAAN
296.7470°
Arg perigee
33.8256°
Mean anomaly
326.2985°
Rev number
35,983

§ Raw data

STARLINK-12601 45404U 20019AW  26262.68737346  .00037953  00000+0  74900-3 0  99902 45404  53.1516 296.7470 0003661  33.8256 326.2985 15.46822410359834

JSON: /api/v1/satellites/45404 · /tle

For live sub-satellite position, see the globe view (requires WebGL).

§ Visibility from observer

Set your observer location to see the next 7 days of passes ≥ 10°. The values pass through the URL so the page stays shareable.

No JS? Fill the form by hand. The geolocation button needs JavaScript.